Simultaneous Nadir Overpasses (SNOs) Predictions

Prediction of SNOs between LANDSAT-8 and METOP-B Satellite Orbit:

Table of predicted SNOs for the next 14.0 days since TLE Epoch: 10/25/2025
Index Date (LANDSAT-8) Time (LANDSAT-8) Lat,Lon (LANDSAT-8) SZA (LANDSAT-8 ) Date (METOP-B) Time (METOP-B) Lat,Lon (METOP-B) SZA (METOP-B ) Distance(km) Time Diff (sec)
1 10/26/2025 03:42:49 81.35, 168.11 96.60 10/26/2025 03:42:22 81.36, 168.12 96.59 0.55 27
2 10/26/2025 04:32:15 -81.37, -23.93 83.35 10/26/2025 04:33:02 -81.36, -23.97 83.34 1.26 47
3 10/28/2025 23:17:06 81.35,-125.56 97.53 10/28/2025 23:17:03 81.36,-125.46 97.55 1.93 3
4 10/29/2025 00:06:32 -81.36, 42.42 82.41 10/29/2025 00:07:43 -81.36, 42.42 82.38 0.62 71
5 10/31/2025 18:01:55 -81.36, 133.59 81.52 10/31/2025 18:01:03 -81.36, 133.65 81.54 1.21 52
6 10/31/2025 18:51:21 81.37, -58.71 98.51 10/31/2025 18:51:43 81.36, -58.75 98.51 1.22 22
7 11/03/2025 13:36:10 -81.35,-160.16 80.66 11/03/2025 13:35:43 -81.36,-160.15 80.67 0.36 27
8 11/03/2025 14:25:36 81.35, 7.50 99.36 11/03/2025 14:26:23 81.36, 7.48 99.38 0.38 47
9 11/06/2025 08:21:12 81.04, 93.35 99.39 11/06/2025 08:20:07 81.20, 89.16 99.08 74.18 65
10 11/06/2025 09:10:25 -81.35, -93.79 79.82 11/06/2025 09:10:23 -81.36, -93.65 79.80 2.55 2



Historial Predications of SNOs between LANDSAT-8 and METOP-B
